Location: Spangle
(47.4302°N, 117.3779°W)
Time: 13:59:45
(UTC+00:00)

Envisat - Pass Details

Date: 24 April 2026
Orbit: 761 x 762 km, 98.4° (Epoch: 15 May)

Event Time Altitude Azimuth Distance (km) Brightness Sun altitude
Rises 08:57:25 0° 33° (NNE) 3,234 7.4 -27.7°
Reaches altitude 10° 09:01:17 10° 63° (ENE) 2,301 6.0 -27.4°
Maximum altitude 09:03:19 12° 86° (E) 2,140 5.6 -27.3°
Drops below altitude 10° 09:05:21 10° 110° (ESE) 2,293 5.5 -27.2°
Enters shadow 09:05:44 - 114° (ESE) 2,355 5.5 -27.2°
